User: anonymous   Login
Location: Holmes Observatory
(37.1039°N, 122.0513°W)
Time: 11:46:54
(UTC-07:00)
Language:

Cosmos 921 Rocket - Orbit

View from above orbital plane
View from above orbital plane
View from above satellite
View from above satellite

Ground track
Ground track

The orbit data is extracted from the following two-line orbital elements,

1 10096U 77055B   17207.75665275 +.00000050 +00000-0 +73807-5 0  9995
2 10096 075.8352 289.3328 0041987 106.0309 254.5512 14.88564042168136
Epoch (UTC): 26 July 2017 18:09:34
Eccentricity: 0.0041987
inclination: 75.8352°
perigee height: 573 km
apogee height: 632 km
right ascension of ascending node: 289.3328°
argument of perigee: 106.0309°
revolutions per day: 14.88564042
mean anomaly at epoch: 254.5512°
orbit number at epoch: 16813

The dashed part of the orbit path shows where the satellite is in the earth's shadow,  

DLR